Location: Sherrills_Ford_Terrell
(35.6000°N, 80.9830°W)
Time: 10:44:55
(UTC-04:00)

ISS - Visible Passes

Search period start: 24 July 2014 00:00
Search period end: 03 August 2014 00:00
Orbit: 411 x 419 km, 51.6° (Epoch: 24 July)

Date Brightness Start Highest point End Pass type
(mag) Time Alt. Az. Time Alt. Az. Time Alt. Az.
24 Jul 0.0 03:01:31 14° NNE 03:01:31 14° NNE 03:02:09 10° NNE visible
26 Jul 0.2 03:00:08 10° N 03:00:08 10° N 03:00:13 10° N visible
29 Jul 0.1 05:25:22 10° N 05:26:23 11° NNE 05:27:23 10° NE visible
31 Jul -0.5 05:23:41 10° NNW 05:26:21 21° NNE 05:29:01 10° E visible
01 Aug 0.0 04:35:39 10° N 04:37:38 15° NNE 04:39:37 10° ENE visible
01 Aug -1.6 21:16:35 10° SSE 21:18:33 15° SE 21:18:37 15° SE visible
01 Aug -0.3 22:51:48 10° WSW 22:51:50 10° WSW 22:51:50 10° WSW visible
02 Aug 0.3 03:48:10 10° N 03:48:52 11° NNE 03:49:35 10° NE visible
02 Aug -2.5 05:22:54 10° NW 05:26:14 55° NE 05:29:32 10° ESE visible
02 Aug -3.3 22:03:11 10° SW 22:06:30 83° NW 22:09:52 10° NE visible
02 Aug 0.1 23:42:07 10° NW 23:43:09 12° NW 23:43:09 12° NW visible
